• In Uzbekistan
  • List of Countries
  • For 7 days
  • Water Temperature
  • Satellite Maps
  • Weather Map
  • Weather Widgets
  • user-avatar
    Login

    Hourly Weather Mauritius

    Today, 21 February, Tuesday

    Time Temperature Precipitation Wind Pressure Humidity
    00:00 +26°C° 0 mm 5 mps 723 mmHg 83%
    01:00 +26°C° 0 mm 5 mps 723 mmHg 84%
    02:00 +24°C° 0.1 mm 6 mps 723 mmHg 84%
    03:00 +24°C° 0.1 mm 6 mps 723 mmHg 84%
    04:00 +24°C° 0.1 mm 6 mps 723 mmHg 84%
    05:00 +26°C° 0.2 mm 6 mps 723 mmHg 83%
    06:00 +26°C° 0.2 mm 6 mps 723 mmHg 83%
    07:00 +26°C° 0.2 mm 6 mps 723 mmHg 82%
    08:00 +27°C° 0.2 mm 6 mps 723 mmHg 79%
    09:00 +27°C° 0.2 mm 7 mps 723 mmHg 75%
    10:00 +28°C° 0.2 mm 7 mps 723 mmHg 72%
    11:00 +29°C° 0.3 mm 7 mps 723 mmHg 71%
    12:00 +29°C° 0.3 mm 7 mps 723 mmHg 70%
    13:00 +29°C° 0.3 mm 7 mps 723 mmHg 68%
    14:00 +29°C° 0.3 mm 7 mps 723 mmHg 69%
    15:00 +29°C° 0.3 mm 7 mps 723 mmHg 70%
    16:00 +29°C° 0.3 mm 7 mps 723 mmHg 70%
    17:00 +28°C° 0.1 mm 7 mps 723 mmHg 73%
    18:00 +27°C° 0.1 mm 7 mps 723 mmHg 77%
    19:00 +26°C° 0.1 mm 6 mps 723 mmHg 80%
    20:00 +26°C° 0 mm 6 mps 723 mmHg 80%
    21:00 +26°C° 0 mm 7 mps 724 mmHg 80%
    22:00 +26°C° 0 mm 7 mps 724 mmHg 81%
    23:00 +26°C° 0 mm 6 mps 724 mmHg 81%

    Tomorrow, 22 February, Wednesday

    Time Temperature Precipitation Wind Pressure Humidity
    00:00 +26°C° 0 mm 6 mps 724 mmHg 81%
    01:00 +26°C° 0 mm 6 mps 724 mmHg 82%
    02:00 +26°C° 0 mm 6 mps 723 mmHg 82%
    03:00 +24°C° 0 mm 6 mps 723 mmHg 82%
    04:00 +24°C° 0 mm 6 mps 723 mmHg 82%
    05:00 +26°C° 0 mm 6 mps 723 mmHg 81%
    06:00 +26°C° 0 mm 5 mps 724 mmHg 80%
    07:00 +26°C° 0 mm 5 mps 724 mmHg 79%
    08:00 +27°C° 0 mm 5 mps 724 mmHg 76%
    09:00 +28°C° 0 mm 5 mps 725 mmHg 72%
    10:00 +29°C° 0 mm 5 mps 725 mmHg 69%
    11:00 +29°C° 0 mm 5 mps 725 mmHg 68%
    12:00 +29°C° 0 mm 5 mps 724 mmHg 67%
    13:00 +30°C° 0 mm 5 mps 724 mmHg 67%
    14:00 +29°C° 0.2 mm 5 mps 724 mmHg 69%
    15:00 +29°C° 0.2 mm 5 mps 724 mmHg 71%
    16:00 +28°C° 0.2 mm 5 mps 723 mmHg 73%
    17:00 +28°C° 0.1 mm 5 mps 723 mmHg 77%
    18:00 +27°C° 0.1 mm 5 mps 724 mmHg 80%
    19:00 +26°C° 0.1 mm 5 mps 724 mmHg 84%
    20:00 +26°C° 0.1 mm 5 mps 724 mmHg 84%
    21:00 +26°C° 0.1 mm 5 mps 724 mmHg 85%
    22:00 +26°C° 0.1 mm 5 mps 725 mmHg 85%
    23:00 +26°C° 0.2 mm 5 mps 725 mmHg 85%

    Day after tomorrow, 23 February, Thursday

    Time Temperature Precipitation Wind Pressure Humidity
    00:00 +26°C° 0.2 mm 5 mps 724 mmHg 85%
    01:00 +26°C° 0.2 mm 5 mps 724 mmHg 85%
    02:00 +26°C° 0 mm 5 mps 724 mmHg 84%
    03:00 +25°C° 0 mm 5 mps 724 mmHg 84%
    04:00 +25°C° 0 mm 5 mps 723 mmHg 84%
    05:00 +26°C° 0 mm 5 mps 724 mmHg 83%
    06:00 +26°C° 0 mm 5 mps 724 mmHg 82%
    07:00 +26°C° 0 mm 5 mps 724 mmHg 82%
    08:00 +27°C° 0 mm 4 mps 724 mmHg 77%
    09:00 +28°C° 0 mm 4 mps 725 mmHg 73%
    10:00 +29°C° 0 mm 4 mps 725 mmHg 69%
    11:00 +29°C° 0 mm 4 mps 725 mmHg 68%
    12:00 +29°C° 0 mm 4 mps 724 mmHg 66%
    13:00 +30°C° 0 mm 4 mps 724 mmHg 65%
    14:00 +29°C° 0 mm 4 mps 724 mmHg 67%
    15:00 +29°C° 0 mm 4 mps 723 mmHg 68%
    16:00 +29°C° 0 mm 4 mps 723 mmHg 69%
    17:00 +28°C° 0 mm 4 mps 723 mmHg 73%
    18:00 +27°C° 0 mm 4 mps 724 mmHg 77%
    19:00 +26°C° 0 mm 4 mps 724 mmHg 81%
    20:00 +26°C° 0 mm 4 mps 724 mmHg 81%
    21:00 +26°C° 0 mm 4 mps 725 mmHg 82%
    22:00 +26°C° 0 mm 4 mps 725 mmHg 83%
    23:00 +25°C° 0 mm 4 mps 725 mmHg 83%

    24 February, Friday

    Time Temperature Precipitation Wind Pressure Humidity
    00:00 +25°C° 0 mm 3 mps 724 mmHg 84%
    01:00 +25°C° 0 mm 3 mps 724 mmHg 84%
    02:00 +25°C° 0 mm 3 mps 724 mmHg 84%
    03:00 +25°C° 0 mm 3 mps 723 mmHg 84%
    04:00 +25°C° 0 mm 3 mps 723 mmHg 84%
    05:00 +25°C° 0 mm 3 mps 724 mmHg 82%
    06:00 +26°C° 0 mm 3 mps 724 mmHg 81%
    07:00 +26°C° 0 mm 3 mps 724 mmHg 80%
    08:00 +27°C° 0 mm 3 mps 725 mmHg 76%
    09:00 +28°C° 0 mm 3 mps 725 mmHg 72%
    10:00 +29°C° 0 mm 3 mps 725 mmHg 67%
    11:00 +29°C° 0.2 mm 3 mps 725 mmHg 69%
    12:00 +29°C° 0.2 mm 3 mps 724 mmHg 71%
    13:00 +29°C° 0.2 mm 3 mps 724 mmHg 72%
    14:00 +28°C° 0.3 mm 3 mps 724 mmHg 73%
    15:00 +28°C° 0.3 mm 3 mps 723 mmHg 75%
    16:00 +28°C° 0.3 mm 3 mps 723 mmHg 76%
    17:00 +27°C° 0.2 mm 4 mps 723 mmHg 79%
    18:00 +27°C° 0.2 mm 4 mps 724 mmHg 81%
    19:00 +26°C° 0.2 mm 4 mps 724 mmHg 84%
    20:00 +26°C° 0.4 mm 4 mps 724 mmHg 84%
    21:00 +26°C° 0.4 mm 4 mps 725 mmHg 84%
    22:00 +26°C° 0.4 mm 4 mps 725 mmHg 84%
    23:00 +25°C° 0.2 mm 4 mps 725 mmHg 84%

    25 February, Saturday

    Time Temperature Precipitation Wind Pressure Humidity
    00:00 +25°C° 0.2 mm 4 mps 724 mmHg 84%
    01:00 +25°C° 0.2 mm 4 mps 724 mmHg 84%
    02:00 +25°C° 0 mm 3 mps 724 mmHg 84%
    03:00 +25°C° 0 mm 3 mps 724 mmHg 84%
    04:00 +25°C° 0 mm 3 mps 723 mmHg 84%
    05:00 +25°C° 0 mm 3 mps 724 mmHg 83%
    06:00 +26°C° 0 mm 3 mps 724 mmHg 82%
    07:00 +26°C° 0 mm 3 mps 724 mmHg 80%
    08:00 +27°C° 0 mm 3 mps 725 mmHg 76%
    09:00 +28°C° 0 mm 3 mps 725 mmHg 72%
    10:00 +28°C° 0 mm 4 mps 725 mmHg 67%
    11:00 +29°C° 0 mm 4 mps 724 mmHg 67%
    12:00 +29°C° 0 mm 4 mps 724 mmHg 67%
    13:00 +29°C° 0 mm 4 mps 724 mmHg 66%
    14:00 +29°C° 0.2 mm 4 mps 723 mmHg 69%
    15:00 +28°C° 0.2 mm 4 mps 723 mmHg 72%
    16:00 +28°C° 0.2 mm 4 mps 723 mmHg 74%
    17:00 +27°C° 0 mm 4 mps 723 mmHg 77%
    18:00 +26°C° 0 mm 4 mps 723 mmHg 79%
    19:00 +26°C° 0 mm 4 mps 724 mmHg 82%
    20:00 +26°C° 0.1 mm 4 mps 724 mmHg 82%
    21:00 +25°C° 0.1 mm 5 mps 724 mmHg 82%
    22:00 +25°C° 0.1 mm 5 mps 724 mmHg 83%
    23:00 +25°C° 0 mm 4 mps 724 mmHg 83%

    26 February, Sunday

    Time Temperature Precipitation Wind Pressure Humidity
    00:00 +25°C° 0 mm 4 mps 723 mmHg 83%
    01:00 +25°C° 0 mm 4 mps 723 mmHg 83%
    02:00 +25°C° 0 mm 4 mps 723 mmHg 83%
    03:00 +25°C° 0 mm 4 mps 723 mmHg 83%
    04:00 +25°C° 0 mm 4 mps 722 mmHg 82%
    05:00 +25°C° 0.2 mm 4 mps 723 mmHg 81%
    06:00 +26°C° 0.2 mm 4 mps 723 mmHg 81%
    07:00 +26°C° 0.2 mm 4 mps 723 mmHg 80%
    08:00 +27°C° 0 mm 4 mps 723 mmHg 76%
    09:00 +28°C° 0 mm 4 mps 723 mmHg 72%
    10:00 +28°C° 0 mm 4 mps 723 mmHg 68%
    11:00 +28°C° 0 mm 4 mps 723 mmHg 69%
    12:00 +29°C° 0 mm 4 mps 722 mmHg 69%
    13:00 +29°C° 0 mm 4 mps 722 mmHg 69%
    14:00 +28°C° 0.2 mm 4 mps 722 mmHg 70%
    15:00 +28°C° 0.2 mm 4 mps 722 mmHg 72%
    16:00 +28°C° 0.2 mm 4 mps 721 mmHg 73%
    17:00 +27°C° 0.2 mm 4 mps 722 mmHg 76%
    18:00 +26°C° 0.2 mm 3 mps 722 mmHg 78%
    19:00 +26°C° 0.2 mm 3 mps 722 mmHg 81%
    20:00 +26°C° 0.2 mm 4 mps 722 mmHg 82%
    21:00 +25°C° 0.2 mm 4 mps 722 mmHg 83%
    22:00 +25°C° 0.2 mm 4 mps 722 mmHg 84%
    23:00 +25°C° 0.2 mm 4 mps 722 mmHg 84%
    Show more